| time (UTC) | temp F | wind direction | speed knots | gust knots | rain 1hr in | rain 24hr in | rain mn in | humidity % | barometer mb |
| 20260504045826 | 55 | 202 | 0.0 | 0.9 | 0.00 | 0.00 | 0.00 | 61 | 1013.2 |
| 20260504044827 | 55 | 170 | 0.9 | 3.5 | 0.00 | 0.00 | 0.00 | 59 | 1013.3 |
| 20260504044728 | 56 | 157 | 0.9 | 1.7 | 0.00 | 0.00 | 0.00 | 60 | 1013.2 |
| 20260504043728 | 56 | 202 | 1.7 | 2.6 | 0.00 | 0.00 | 0.00 | 60 | 1013.5 |
| 20260504043627 | 56 | 194 | 1.7 | 2.6 | 0.00 | 0.00 | 0.00 | 60 | 1013.5 |
| 20260504042725 | 56 | 209 | 2.6 | 4.3 | 0.00 | 0.00 | 0.00 | 60 | 1013.6 |
| 20260504040728 | 56 | 213 | 0.0 | 2.6 | 0.00 | 0.00 | 0.00 | 58 | 1013.7 |
| 20260504035735 | 57 | 188 | 1.7 | 3.5 | 0.00 | 0.00 | 0.00 | 58 | 1013.7 |
| 20260504034737 | 57 | 202 | 0.9 | 0.9 | 0.00 | 0.00 | 0.00 | 58 | 1013.8 |
| 20260504032836 | 57 | 225 | 0.9 | 2.6 | 0.00 | 0.00 | 0.00 | 58 | 1014.0 |
| 20260504031836 | 57 | 194 | 0.0 | 0.9 | 0.00 | 0.00 | 0.00 | 57 | 1014.2 |
| 20260504030835 | 57 | 205 | 0.9 | 1.7 | 0.00 | 0.00 | 0.00 | 56 | 1014.3 |
| 20260504024939 | 58 | 183 | 1.7 | 2.6 | 0.00 | 0.00 | 0.00 | 55 | 1014.1 |
| 20260504024037 | 58 | 194 | 2.6 | 4.3 | 0.00 | 0.00 | 0.00 | 55 | 1014.1 |
| 20260504023037 | 58 | 199 | 1.7 | 3.5 | 0.00 | 0.00 | 0.00 | 55 | 1014.1 |
| 20260504021036 | 59 | 208 | 0.9 | 1.7 | 0.00 | 0.00 | 0.00 | 53 | 1014.2 |
| 20260504020037 | 59 | 190 | 2.6 | 4.3 | 0.00 | 0.00 | 0.00 | 53 | 1014.2 |
| 20260504015037 | 59 | 207 | 2.6 | 5.2 | 0.00 | 0.00 | 0.00 | 52 | 1014.2 |
| 20260504014036 | 59 | 211 | 2.6 | 4.3 | 0.00 | 0.00 | 0.00 | 51 | 1014.3 |
| 20260504013037 | 60 | 202 | 0.0 | 1.7 | 0.00 | 0.00 | 0.00 | 51 | 1014.2 |
| 20260504012037 | 60 | 204 | 3.5 | 5.2 | 0.00 | 0.00 | 0.00 | 50 | 1014.2 |
| 20260504011035 | 60 | 197 | 1.7 | 2.6 | 0.00 | 0.00 | 0.00 | 50 | 1014.4 |
| 20260504010037 | 60 | 225 | 0.9 | 3.5 | 0.00 | 0.00 | 0.00 | 49 | 1014.7 |
| 20260504005135 | 61 | 190 | 1.7 | 3.5 | 0.00 | 0.00 | 0.00 | 48 | 1014.7 |
| 20260504003237 | 61 | 220 | 1.7 | 2.6 | 0.00 | 0.00 | 0.00 | 47 | 1015.0 |
| 20260504002236 | 61 | 202 | 0.9 | 1.7 | 0.00 | 0.00 | 0.00 | 47 | 1014.9 |
| 20260504001238 | 61 | 255 | 1.7 | 3.5 | 0.00 | 0.00 | 0.00 | 47 | 1014.9 |
| 20260504000336 | 62 | 233 | 0.9 | 1.7 | 0.00 | 0.00 | 0.00 | 47 | 1014.9 |
| 20260503234337 | 62 | 236 | 3.5 | 7.0 | 0.00 | 0.00 | 0.00 | 45 | 1014.8 |
| 20260503233336 | 62 | 232 | 4.3 | 7.8 | 0.00 | 0.00 | 0.00 | 44 | 1014.4 |
| 20260503232335 | 63 | 239 | 2.6 | 5.2 | 0.00 | 0.00 | 0.00 | 45 | 1014.4 |
| 20260503231337 | 63 | 240 | 5.2 | 6.1 | 0.00 | 0.00 | 0.00 | 45 | 1014.4 |
| 20260503230436 | 63 | 232 | 0.9 | 2.6 | 0.00 | 0.00 | 0.00 | 45 | 1014.4 |
| 20260503225438 | 63 | 236 | 3.5 | 4.3 | 0.00 | 0.00 | 0.00 | 44 | 1014.4 |
| 20260503224536 | 63 | 231 | 3.5 | 10.4 | 0.00 | 0.00 | 0.00 | 45 | 1014.6 |
| 20260503222635 | 63 | 194 | 1.7 | 5.2 | 0.00 | 0.00 | 0.00 | 44 | 1014.7 |
| 20260503221637 | 63 | 209 | 3.5 | 6.1 | 0.00 | 0.00 | 0.00 | 45 | 1014.8 |
| 20260503220735 | 63 | 256 | 4.3 | 7.0 | 0.00 | 0.00 | 0.00 | 44 | 1015.1 |
| 20260503214836 | 63 | 205 | 5.2 | 8.7 | 0.00 | 0.00 | 0.00 | 43 | 1015.3 |
| 20260503213836 | 63 | 215 | 2.6 | 4.3 | 0.00 | 0.00 | 0.00 | 42 | 1015.5 |
| 20260503211837 | 63 | 234 | 4.3 | 8.7 | 0.00 | 0.00 | 0.00 | 42 | 1015.8 |
| 20260503205935 | 63 | 215 | 4.3 | 6.1 | 0.00 | 0.00 | 0.00 | 42 | 1016.6 |
| 20260503204937 | 63 | 223 | 2.6 | 5.2 | 0.00 | 0.00 | 0.00 | 41 | 1016.9 |
| 20260503203938 | 62 | 244 | 4.3 | 7.8 | 0.00 | 0.00 | 0.00 | 41 | 1017.1 |
| 20260503201936 | 63 | 219 | 6.1 | 9.6 | 0.00 | 0.00 | 0.00 | 42 | 1016.9 |
| 20260503200938 | 62 | 233 | 2.6 | 7.0 | 0.00 | 0.00 | 0.00 | 41 | 1017.2 |
| 20260503200837 | 62 | 237 | 4.3 | 7.8 | 0.00 | 0.00 | 0.00 | 42 | 1017.3 |
| 20260503195836 | 62 | 227 | 4.3 | 7.8 | 0.00 | 0.00 | 0.00 | 41 | 1017.1 |
| 20260503194836 | 62 | 208 | 2.6 | 4.3 | 0.00 | 0.00 | 0.00 | 42 | 1017.7 |
| 20260503191934 | 61 | 247 | 6.1 | 8.7 | 0.00 | 0.00 | 0.00 | 41 | 1018.1 |
| 20260503190937 | 61 | 224 | 4.3 | 7.8 | 0.00 | 0.00 | 0.00 | 41 | 1018.2 |
| 20260503185936 | 61 | 213 | 3.5 | 8.7 | 0.00 | 0.00 | 0.00 | 41 | 1018.5 |
| 20260503185035 | 61 | 238 | 5.2 | 9.6 | 0.00 | 0.00 | 0.00 | 41 | 1018.5 |
| 20260503184037 | 61 | 197 | 3.5 | 7.8 | 0.00 | 0.00 | 0.00 | 42 | 1018.9 |
| 20260503183038 | 61 | 267 | 4.3 | 6.1 | 0.00 | 0.00 | 0.00 | 41 | 1019.2 |
| 20260503182038 | 61 | 236 | 5.2 | 7.0 | 0.00 | 0.00 | 0.00 | 42 | 1019.4 |
| 20260503180037 | 61 | 197 | 1.7 | 3.5 | 0.00 | 0.00 | 0.00 | 42 | 1019.8 |
| 20260503175038 | 61 | 279 | 1.7 | 4.3 | 0.00 | 0.00 | 0.00 | 42 | 1020.0 |
| 20260503174136 | 60 | 261 | 5.2 | 9.6 | 0.00 | 0.00 | 0.00 | 42 | 1020.2 |
| 20260503173136 | 60 | 242 | 3.5 | 4.3 | 0.00 | 0.00 | 0.00 | 42 | 1020.2 |
| 20260503172137 | 60 | 235 | 3.5 | 5.2 | 0.00 | 0.00 | 0.00 | 41 | 1020.3 |
| 20260503171137 | 60 | 238 | 4.3 | 8.7 | 0.00 | 0.00 | 0.00 | 40 | 1020.5 |
| 20260503170234 | 60 | 263 | 4.3 | 8.7 | 0.00 | 0.00 | 0.00 | 42 | 1020.4 |
| 20260503170136 | 60 | 236 | 3.5 | 6.1 | 0.00 | 0.00 | 0.00 | 42 | 1020.4 |
| 20260503150535 | 56 | 216 | 2.6 | 4.3 | 0.00 | 0.00 | 0.00 | 47 | 1022.0 |
| 20260503130638 | 44 | 247 | 1.7 | 3.5 | 0.00 | 0.00 | 0.00 | 79 | 1022.0 |
| 20260503090136 | 33 | 22 | 0.0 | 0.0 | 0.00 | 0.00 | 0.00 | 94 | 1019.9 |
| 20260503081337 | 33 | 22 | 0.0 | 0.0 | 0.00 | 0.00 | 0.00 | 94 | 1019.8 |
| 20260503081237 | 33 | 22 | 0.0 | 0.0 | 0.00 | 0.00 | 0.00 | 95 | 1019.9 |
| 20260503080236 | 33 | 22 | 0.0 | 0.0 | 0.00 | 0.00 | 0.00 | 95 | 1019.8 |
| 20260503072236 | 34 | 22 | 0.0 | 0.0 | 0.00 | 0.00 | 0.00 | 94 | 1019.8 |
| 20260503071237 | 34 | 22 | 0.0 | 0.0 | 0.00 | 0.00 | 0.00 | 92 | 1019.8 |
| 20260503070236 | 34 | 22 | 0.0 | 0.0 | 0.00 | 0.00 | 0.00 | 93 | 1020.0 |
| 20260503070136 | 34 | 22 | 0.0 | 0.0 | 0.00 | 0.00 | 0.00 | 92 | 1020.0 |
| 20260503060137 | 35 | 22 | 0.0 | 0.0 | 0.00 | 0.00 | 0.00 | 91 | 1020.3 |
| 20260503054236 | 35 | 22 | 0.0 | 0.0 | 0.00 | 0.00 | 0.00 | 90 | 1020.3 |
| 20260503053236 | 35 | 22 | 0.0 | 0.0 | 0.00 | 0.00 | 0.00 | 89 | 1020.5 |
| 20260503052335 | 36 | 22 | 0.0 | 0.0 | 0.00 | 0.00 | 0.00 | 90 | 1020.5 |